Погода в Ртищевском

Россия / Саратовская область     52°19′48″N   43°53′10″E
темп.,
°C
ветер,
м/с
пор.,
м/с
влажн.,
%
обл.,
%
осадки,
мм/ч
давл.,
гПа
погр.,
м
9 мая, вс
вс901:00+13ююв61675100 0.1 1009392
04:00+12ююв61478100 0.8 1008319
07:00+13ююв61584100 0.2 1007423
10:00+16ю71277100 1.2 1007865
13:00+16ю71071100 0.0 1007935
16:00+9зсз61091100 0.7 1010454
19:00+9зсз4694100 1.3 1012412
22:00+8зсз4796100 5.1 1014393
10 мая, пн
пн1001:00+6ссз61096100 3.6 1014416
04:00+6ссз51096100 6.0 1015438
07:00+6с61197100 3.6 1015473
10:00+8с71297100 5.7 1014337
13:00+13ссв71389100 0.1 1014612
16:00+16св101782100 0.3 1013666
19:00+16св101780100 0.3 1013514
22:00+14св61388100 2.4 1015356
11 мая, вт
вт1101:00+14св7168488 0.6 1015399
04:00+14всв71475100 0.6 1016429
07:00+9юв4992100 0.6 1020544
10:00+10юв577483 1.4 1023646
13:00+15юв67512 0.0 10231319
16:00+16юв574989 0.0 10241587
19:00+13ююв3667100 0.0 1025148
22:00+11св3480100 0.5 1026166
12 мая, ср
ср1201:00+9св3588100 0.5 1025187
04:00+10ссв3695100 0.9 1024251
07:00+11всв489798 0.6 1024393
10:00+15вюв61186100 1.4 1023927
13:00+15в71282100 0.3 1023636
16:00+16вюв8147774 0.4 10231153
19:00+15вюв7148095 0.1 1023885
22:00+14в51383100 0.1 1022487
13 мая, чт
чт1301:00+13вюв4118282 0.0 1022306
04:00+13в41079100 0.0 1022224
07:00+13в5127770 0.0 1022325
10:00+18вюв69655 0.0 1021613
13:00+21юв8106162 0.0 10211446
16:00+20юв7106857 0.1 1021995
19:00+20юв7126526 0.1 1021671
22:00+17вюв615674 0.1 1021390